sat.trackr.live / text

‹ back to catalog

HAIYANG-1B

NORAD 31113 · 2007-010A

PAYLOAD ACTIVE UNKNOWN

§ Identity

Operator
Country
PRC
Launch date
2007-04-11
Launch site
TAISC
Launch vehicle
Mass (kg)
RCS (m²)
1.36

Purposes: earth_obs

External: N2YO · Heavens-Above · Gunter

§ Orbital elements

Epoch: 2026-09-19T17:54:15.059232Z

Period
100.63 min
Inclination
98.3616°
Eccentricity
0.0012278
Mean motion
14.31046374 rev/d
Perigee alt
779.4 km
Apogee alt
797.0 km
Semi-major
7,166.4 km
B*
3.6632e-5
RAAN
240.9738°
Arg perigee
283.0599°
Mean anomaly
76.9214°
Rev number
1,416

§ Raw data

HAIYANG-1B1 31113U 07010A   26262.74600763  .00000055  00000+0  36632-4 0  99912 31113  98.3616 240.9738 0012278 283.0599  76.9214 14.31046374 14167

JSON: /api/v1/satellites/31113 · /tle

For live sub-satellite position, see the globe view (requires WebGL).

§ Visibility from observer

Set your observer location to see the next 7 days of passes ≥ 10°. The values pass through the URL so the page stays shareable.

No JS? Fill the form by hand. The geolocation button needs JavaScript.

§ Radio — SatNOGS DB

ModeDescriptionDownlinkUplink
BPSK S-Band 9k6 BPSK Experimental 2.274 GHz
BPSK S-Band DBPSK 2.274 GHz

2 transmitters · refreshed weekly from db.satnogs.org